Burlington, CO

1:14 PM MST on December 15, 2017 (GMT -0700)
Kit Carson County

Weather History for KITR - January, 2013

Change the Weather History Date:

Wednesday, January 9, 2013

  Actual Average Record
Temperature  
Mean Temperature 36 °F 29 °F  
Max Temperature 54 °F 42 °F 74 °F (2002)
Min Temperature 17 °F 17 °F -10 °F (1937)
Degree Days  
Heating Degree Days 29    
Moisture  
Dew Point 20 °F    
Average Humidity 51    
Maximum Humidity 81    
Minimum Humidity 24    
Precipitation  
Precipitation 0.00 in 0.01 in 0.30 in (1993)
Month to date precipitation T 0.09  
Year to date precipitation T 0.09  
Sea Level Pressure  
Sea Level Pressure 30.28 in    
Wind  
Wind Speed 13 mph (SSW)    
Max Wind Speed 22 mph    
Max Gust Speed 30 mph    
Visibility 10 miles    
Events      
T = Trace of Precipitation, MM = Missing Value Source: NWS Daily Summary

Daily Weather History Graph

Daily Weather History Graph

Search for Another Location

Airport or City:

Trip Planner

Search our weather history database for the weather conditions in past years. The results will help you decide how hot, cold, wet, or windy it might be!

Date:

Astronomy

Jan. 09, 2013 Rise Set
Actual Time 7:08 AM MST 4:44 PM MST
Civil Twilight 6:38 AM MST 5:14 PM MST
Nautical Twilight 6:05 AM MST 5:47 PM MST
Astronomical Twilight 5:33 AM MST 6:19 PM MST
Moon 4:50 AM MST (1/9) 2:48 PM MST (1/9)
Length of Visible Light 10h 35m
Length of Day
9h 35m
Waning Crescent, 6% of the Moon is Illuminated
Jan 9
Waning Crescent
Jan 11
New
Jan 18
First Quarter
Jan 26
Full
Feb 3
Last Quarter

Hourly Weather History & Observations

Time (MST) Temp. Windchill Dew Point Humidity Pressure Visibility Wind Dir Wind Speed Gust Speed Precip Events Conditions
1:53 AM 19.9 °F 9.3 °F 15.1 °F 81% 30.27 in 10.0 mi WSW 9.2 mph - N/A   Clear
2:53 AM 18.0 °F 9.8 °F 12.9 °F 81% 30.28 in 10.0 mi WSW 5.8 mph - N/A   Clear
3:53 AM - - - N/A% 30.29 in - North - - N/A   Unknown
4:53 AM 26.1 °F 15.0 °F 18.0 °F 71% 30.33 in 10.0 mi SSW 12.7 mph - N/A   Unknown
6:53 AM - - - N/A% 30.34 in - North - - N/A   Unknown
8:53 AM 37.0 °F 30.4 °F 26.1 °F 65% 30.45 in 10.0 mi SW 9.2 mph - N/A   Clear
9:53 AM 44.1 °F 36.8 °F 25.0 °F 47% 30.42 in 10.0 mi SW 16.1 mph - N/A   Clear
10:53 AM 48.9 °F - 21.9 °F 35% 30.37 in 10.0 mi SW 18.4 mph - N/A   Clear
11:53 AM 50.0 °F - 19.9 °F 31% 30.33 in 10.0 mi SSW 15.0 mph - N/A   Clear
12:53 PM 50.0 °F - 21.0 °F 32% 30.30 in 10.0 mi SSW 18.4 mph - N/A   Clear
1:53 PM 54.0 °F - 19.9 °F 26% 30.28 in 10.0 mi SSW 19.6 mph 29.9 mph N/A   Clear
2:53 PM 53.1 °F - 17.1 °F 24% 30.28 in 10.0 mi SSW 21.9 mph - N/A   Clear
3:53 PM 48.0 °F - 18.0 °F 30% 30.22 in 10.0 mi South 15.0 mph - N/A   Clear
4:53 PM 39.0 °F 31.8 °F 19.0 °F 45% 30.26 in 10.0 mi South 11.5 mph - N/A   Clear
5:53 PM 35.1 °F 26.9 °F 17.1 °F 48% 30.28 in 10.0 mi South 11.5 mph - N/A   Clear
6:53 PM 36.0 °F 26.0 °F 21.0 °F 55% 30.21 in 10.0 mi South 17.3 mph - N/A   Clear
7:53 PM 34.0 °F 22.7 °F 21.9 °F 61% 30.27 in 10.0 mi South 19.6 mph - N/A   Clear
8:53 PM 33.1 °F 21.5 °F 21.0 °F 61% 30.23 in 10.0 mi South 19.6 mph - N/A   Clear
9:53 PM 32.0 °F 21.2 °F 21.9 °F 66% 30.21 in 10.0 mi South 16.1 mph - N/A   Clear
10:53 PM - - - N/A% 30.19 in - North - - N/A   Unknown
11:53 PM - - - N/A% 30.17 in - South 18.4 mph - N/A   Unknown